SJ-11-07

Satellite information

Favourite Embed

Satellite Type and Status

PAYLOADIN ORBIT

Key statistics

Satellite SJ-11-07 at a glance.

Uptime

3934

Days in orbit

Revolutions

≈ 14.6

Per day

Orbit

SSO

Sun Synchronous Orbit

Inclination

98.0

Latest

Satellite identification and parameters

Extended collection of information and parameters for SJ-11-07.

Object identification

Identified? True

Debris? False

Object name: SJ-11-07

International designator: 2014-059A

Object number (NORAD): 40261

Object ID (CCSDS): 40261

Country: PEOPLES REPUBLIC OF CHINA (PRC)

Current information (Y/N): Y

RCS size: LARGE

Orbital parameters

Period: 98.415 minutes

Inclination: 98.0348 deg

SMA: 7061.047 km

Apoapsis: 690.969 km

Periapsis: 674.854 km

RAAN: 260.7948 deg

Eccentricy: 0.0011411

Argument of periapsis: 155.1848 deg

Mean anomaly: 204.9906 deg

Mean motion: 14.63184645 rev/day

Mean motion (dot): 0.00000408 rev/day2

B* drag term: 0.000088271 1/REarth

Two-line elements (TLE)

Creation date: July 5, 2025, 10:46 p.m.

Reference frame: TEME

Reference center: EARTH

Epoch: July 5, 2025, 8:49 p.m. UTC

TLE line 0: 0 SJ-11-07

TLE line 1: 1 40261U 14059A 25186.86771725 .00000408 00000-0 88271-4 0 9999

TLE line 2: 2 40261 98.0348 260.7948 0011411 155.1848 204.9906 14.63184645574270

Live tracking on map

Real-time ground track for satellite SJ-11-07.

In-orbit conjunctions

There are no conjunctions computed for SJ-11-07, at the moment. Check back to stay up to date, as we update our databases every day.

Go to all conjunctions

Associated space launch

SJ-11-07 was lifted into orbit during the mission ‘Long March 2C | Shijian 11-07’, on board a Long March 2 space rocket.

The launch took place on Sept. 28, 2014, 5:13 a.m. from Launch Area 4 (SLS-2 / 603).

For more information about the launch, click the button.

Launch to space Long March 2C | Shijian 11-07
Long March 2C | Shijian 11-07

Agency: N/A

Status: Launch Successful

Launch date: Sept. 28, 2014, 5:13 a.m. UTC

Rocket: Long March 2

Launch pad: Launch Area 4 (SLS-2 / 603)

Location: Jiuquan Satellite Launch Center, People's Republic of China

...

Latest news about this satellite

There are no fresh news available about this satellite. Check back as we update our databases every day.


Newsletter sign-up

Weekly statistics, charts and insights to help you stay on top of the space industry.